�������l�o���
Date,Time,MP-1(��Sv/h),MP-2(��Sv/h),MP-3(��Sv/h),MP-4(��Sv/h),MP-5(��Sv/h),MP-6(��Sv/h),MP-7(��Sv/h),MP-8(��Sv/h),����,����(m/s),���J
2021/10/01,00:00,0.601,0.900,0.573,1.096,0.786,0.365,0.634,0.593,��,8.4,�L
2021/10/01,00:10,0.603,0.902,0.575,1.098,0.789,0.364,0.634,0.592,��,7.1,�L
2021/10/01,00:20,0.602,0.899,0.573,1.099,0.786,0.364,0.632,0.592,��,7.3,�L
2021/10/01,00:30,0.603,0.901,0.575,1.099,0.787,0.364,0.635,0.591,��쓌,7.8,�L
2021/10/01,00:40,0.602,0.899,0.574,1.099,0.784,0.363,0.635,0.590,��,7.0,�L
2021/10/01,00:50,0.603,0.898,0.573,1.099,0.785,0.364,0.634,0.590,��,7.8,�L
2021/10/01,01:00,0.602,0.901,0.573,1.099,0.784,0.363,0.633,0.592,��,8.0,�L
2021/10/01,01:10,0.600,0.898,0.572,1.098,0.785,0.364,0.633,0.590,��,7.7,�L
2021/10/01,01:20,0.600,0.897,0.573,1.097,0.784,0.363,0.633,0.589,��,5.7,�L
2021/10/01,01:30,0.600,0.894,0.573,1.099,0.784,0.364,0.631,0.592,��,5.5,�L
2021/10/01,01:40,0.600,0.897,0.572,1.097,0.782,0.366,0.630,0.590,��쐼,5.7,�L
2021/10/01,01:50,0.601,0.896,0.571,1.097,0.783,0.365,0.633,0.591,��,5.0,�L
2021/10/01,02:00,0.599,0.896,0.571,1.095,0.785,0.363,0.630,0.591,��쐼,4.7,�L
2021/10/01,02:10,0.601,0.898,0.571,1.099,0.782,0.364,0.632,0.592,��쐼,4.5,�L
2021/10/01,02:20,0.600,0.894,0.571,1.097,0.782,0.363,0.632,0.589,��,4.2,�L
2021/10/01,02:30,0.597,0.892,0.572,1.096,0.781,0.365,0.631,0.591,��,3.2,�L
2021/10/01,02:40,0.598,0.890,0.569,1.092,0.779,0.365,0.630,0.589,��,3.4,�L
2021/10/01,02:50,0.594,0.886,0.568,1.094,0.774,0.363,0.631,0.587,��,3.5,�L
2021/10/01,03:00,0.593,0.882,0.564,1.089,0.771,0.362,0.629,0.587,��,3.5,�L
2021/10/01,03:10,0.589,0.877,0.563,1.086,0.768,0.361,0.627,0.585,��쓌,3.6,�L
2021/10/01,03:20,0.591,0.875,0.561,1.083,0.766,0.360,0.625,0.585,��,3.1,�L
2021/10/01,03:30,0.588,0.875,0.562,1.082,0.764,0.360,0.626,0.584,��,3.0,�L
2021/10/01,03:40,0.589,0.871,0.560,1.080,0.763,0.359,0.625,0.584,��쐼,2.9,�L
2021/10/01,03:50,0.589,0.872,0.561,1.079,0.762,0.360,0.624,0.583,��쐼,3.5,�L
2021/10/01,04:00,0.592,0.870,0.561,1.079,0.761,0.360,0.623,0.583,��쐼,2.9,�L
2021/10/01,04:10,0.588,0.870,0.562,1.076,0.762,0.361,0.623,0.584,�쐼,1.7,�L
2021/10/01,04:20,0.588,0.870,0.560,1.076,0.762,0.360,0.625,0.583,-,CALM,�L
2021/10/01,04:30,0.589,0.872,0.560,1.076,0.761,0.361,0.623,0.584,-,CALM,�L
2021/10/01,04:40,0.590,0.870,0.560,1.075,0.762,0.359,0.624,0.584,���쐼,0.9,�L
2021/10/01,04:50,0.587,0.867,0.560,1.074,0.758,0.360,0.624,0.582,���k��,1.2,�L
2021/10/01,05:00,0.586,0.866,0.558,1.070,0.758,0.358,0.622,0.580,-,CALM,�L
2021/10/01,05:10,0.583,0.862,0.556,1.066,0.752,0.359,0.619,0.581,��쓌,0.9,�L
2021/10/01,05:20,0.580,0.857,0.555,1.060,0.750,0.358,0.619,0.580,�쓌,2.5,�L
2021/10/01,05:30,0.575,0.852,0.553,1.055,0.747,0.355,0.617,0.577,��쓌,1.2,�L
2021/10/01,05:40,0.573,0.849,0.550,1.048,0.743,0.355,0.613,0.574,-,CALM,�L
2021/10/01,05:50,0.568,0.839,0.548,1.040,0.739,0.352,0.613,0.574,�쓌,3.4,�L
2021/10/01,06:00,0.569,0.840,0.548,1.039,0.735,0.352,0.612,0.573,�쓌,2.0,�L
2021/10/01,06:10,0.569,0.841,0.548,1.034,0.738,0.353,0.611,0.572,�k�k��,3.2,�L
2021/10/01,06:20,0.568,0.839,0.545,1.035,0.735,0.353,0.610,0.573,�k�k��,0.6,�L
2021/10/01,06:30,0.569,0.839,0.547,1.034,0.736,0.353,0.610,0.572,�k,2.2,�L
2021/10/01,06:40,0.572,0.842,0.546,1.034,0.738,0.352,0.612,0.572,�k�k��,3.3,�L
2021/10/01,06:50,0.573,0.845,0.548,1.036,0.740,0.354,0.612,0.573,�k��,3.4,�L
2021/10/01,07:00,0.572,0.846,0.548,1.038,0.740,0.354,0.611,0.574,�k�k��,3.8,�L
2021/10/01,07:10,0.572,0.847,0.550,1.041,0.739,0.353,0.614,0.574,�k�k��,3.9,�L
2021/10/01,07:20,0.574,0.849,0.551,1.043,0.742,0.354,0.612,0.574,�k�k��,3.6,�L
2021/10/01,07:30,0.573,0.850,0.550,1.043,0.742,0.354,0.612,0.574,�k�k��,4.5,�L
2021/10/01,07:40,0.576,0.851,0.550,1.045,0.742,0.355,0.612,0.575,�k�k��,4.7,�L
2021/10/01,07:50,0.577,0.853,0.550,1.044,0.743,0.355,0.611,0.577,�k�k��,5.3,�L
2021/10/01,08:00,0.576,0.852,0.552,1.045,0.741,0.356,0.613,0.576,�k�k��,5.6,�L
2021/10/01,08:10,0.575,0.852,0.550,1.047,0.743,0.355,0.613,0.576,�k�k��,5.7,�L
2021/10/01,08:20,0.577,0.850,0.551,1.047,0.745,0.355,0.612,0.574,�k�k��,6.1,�L
2021/10/01,08:30,0.573,0.848,0.550,1.047,0.741,0.354,0.613,0.576,�k�k��,6.1,�L
2021/10/01,08:40,0.572,0.846,0.550,1.044,0.738,0.355,0.613,0.573,�k�k��,6.1,�L
2021/10/01,08:50,0.573,0.844,0.547,1.042,0.738,0.354,0.613,0.574,�k�k��,6.7,�L
2021/10/01,09:00,0.572,0.846,0.547,1.044,0.738,0.354,0.613,0.574,�k�k��,6.6,�L
2021/10/01,09:10,0.569,0.842,0.545,1.045,0.736,0.353,0.611,0.572,�k�k��,6.4,�L
2021/10/01,09:20,0.570,0.839,0.546,1.043,0.735,0.353,0.612,0.574,�k�k��,6.4,�L
2021/10/01,09:30,0.572,0.842,0.545,1.042,0.738,0.354,0.614,0.574,�k�k��,6.6,�L
2021/10/01,09:40,0.568,0.838,0.546,1.043,0.734,0.352,0.611,0.574,�k�k��,6.0,�L
2021/10/01,09:50,0.566,0.834,0.543,1.035,0.727,0.350,0.610,0.571,�k�k��,5.6,�L
2021/10/01,10:00,0.565,0.836,0.541,1.034,0.727,0.349,0.610,0.572,�k�k��,5.4,�L
2021/10/01,10:10,0.567,0.834,0.542,1.034,0.729,0.352,0.611,0.572,�k�k��,7.5,�L
2021/10/01,10:20,0.566,0.833,0.542,1.031,0.727,0.351,0.609,0.572,�k�k��,7.7,�L
2021/10/01,10:30,0.566,0.832,0.540,1.029,0.725,0.350,0.607,0.572,�k�k��,7.1,�L
2021/10/01,10:40,0.562,0.828,0.541,1.028,0.724,0.349,0.608,0.569,�k,5.8,�L
2021/10/01,10:50,0.562,0.829,0.540,1.023,0.723,0.349,0.610,0.571,�k�k��,6.1,�L
2021/10/01,11:00,0.564,0.827,0.541,1.024,0.725,0.348,0.607,0.573,�k,6.8,�L
2021/10/01,11:10,0.563,0.829,0.541,1.024,0.724,0.349,0.608,0.571,�k,7.0,�L
2021/10/01,11:20,0.563,0.830,0.542,1.025,0.725,0.349,0.608,0.571,�k,7.8,�L
2021/10/01,11:30,0.564,0.829,0.541,1.023,0.724,0.349,0.608,0.571,�k,7.1,�L
2021/10/01,11:40,0.563,0.831,0.540,1.025,0.725,0.350,0.608,0.572,�k,7.5,�L
2021/10/01,11:50,0.564,0.829,0.540,1.022,0.723,0.348,0.608,0.570,�k,6.9,�L
2021/10/01,12:00,0.561,0.825,0.540,1.021,0.720,0.346,0.606,0.570,�k,8.3,�L
2021/10/01,12:10,0.561,0.825,0.538,1.018,0.719,0.347,0.607,0.570,�k,8.1,�L
2021/10/01,12:20,0.562,0.826,0.538,1.018,0.720,0.347,0.607,0.570,�k�k��,9.2,�L
2021/10/01,12:30,0.560,0.825,0.539,1.015,0.719,0.346,0.607,0.571,�k,8.7,�L
2021/10/01,12:40,0.562,0.826,0.540,1.018,0.720,0.347,0.605,0.570,�k�k��,9.8,�L
2021/10/01,12:50,0.563,0.827,0.539,1.018,0.722,0.347,0.607,0.570,�k,8.8,�L
2021/10/01,13:00,0.561,0.827,0.540,1.021,0.721,0.348,0.607,0.572,�k,9.2,�L
2021/10/01,13:10,0.563,0.828,0.540,1.021,0.721,0.348,0.606,0.571,�k,7.7,�L
2021/10/01,13:20,0.563,0.825,0.538,1.020,0.718,0.347,0.605,0.569,�k,9.1,�L
2021/10/01,13:30,0.559,0.823,0.536,1.015,0.715,0.347,0.604,0.569,�k�k��,9.3,�L
2021/10/01,13:40,0.560,0.822,0.538,1.012,0.718,0.347,0.603,0.568,�k,9.6,�L
2021/10/01,13:50,0.559,0.822,0.538,1.014,0.715,0.345,0.604,0.570,�k�k��,10.2,�L
2021/10/01,14:00,0.559,0.820,0.539,1.014,0.715,0.346,0.605,0.569,�k�k��,11.0,�L
2021/10/01,14:10,0.558,0.820,0.538,1.013,0.712,0.345,0.602,0.568,�k�k��,13.8,�L
2021/10/01,14:20,0.556,0.821,0.537,1.007,0.710,0.345,0.602,0.566,�k,10.9,�L
2021/10/01,14:30,0.556,0.819,0.536,1.006,0.709,0.345,0.602,0.567,�k�k��,9.8,�L
2021/10/01,14:40,0.558,0.819,0.537,1.008,0.710,0.345,0.603,0.566,�k,9.5,�L
2021/10/01,14:50,0.558,0.820,0.537,1.007,0.710,0.345,0.601,0.568,�k�k��,11.6,�L
2021/10/01,15:00,0.558,0.821,0.538,1.008,0.711,0.347,0.601,0.567,�k�k��,12.7,�L
2021/10/01,15:10,0.558,0.821,0.537,1.011,0.710,0.349,0.602,0.569,�k�k��,13.2,�L
2021/10/01,15:20,0.558,0.819,0.538,1.008,0.705,0.348,0.602,0.568,�k�k��,11.1,�L
2021/10/01,15:30,0.555,0.818,0.536,1.002,0.706,0.347,0.600,0.568,�k�k��,11.3,�L
2021/10/01,15:40,0.557,0.816,0.538,1.005,0.705,0.348,0.600,0.567,�k�k��,13.0,�L
2021/10/01,15:50,0.554,0.818,0.534,1.002,0.703,0.348,0.601,0.565,�k�k��,9.9,�L
2021/10/01,16:00,0.555,0.818,0.537,1.003,0.704,0.348,0.599,0.566,�k�k��,12.4,�L
2021/10/01,16:10,0.553,0.813,0.534,0.998,0.699,0.348,0.597,0.564,�k�k��,8.2,�L
2021/10/01,16:20,0.552,0.813,0.533,0.995,0.696,0.347,0.597,0.562,�k�k��,12.4,�L
2021/10/01,16:30,0.555,0.817,0.534,0.998,0.701,0.349,0.599,0.566,�k�k��,11.3,�L
2021/10/01,16:40,0.558,0.819,0.537,1.001,0.703,0.348,0.600,0.566,�k�k��,12.7,�L
2021/10/01,16:50,0.558,0.823,0.536,1.005,0.704,0.350,0.599,0.567,�k�k��,11.9,�L
2021/10/01,17:00,0.558,0.821,0.536,1.006,0.702,0.348,0.599,0.566,�k�k��,12.5,�L
2021/10/01,17:10,0.556,0.818,0.536,1.000,0.699,0.349,0.598,0.565,�k�k��,14.7,�L
2021/10/01,17:20,0.555,0.815,0.535,1.000,0.697,0.348,0.598,0.564,�k�k��,14.1,�L
2021/10/01,17:30,0.553,0.816,0.534,0.996,0.696,0.347,0.597,0.565,�k�k��,11.3,�L
2021/10/01,17:40,0.548,0.810,0.530,0.991,0.689,0.346,0.596,0.563,�k�k��,12.7,�L
2021/10/01,17:50,0.551,0.809,0.532,0.990,0.690,0.346,0.595,0.563,�k�k��,12.7,�L
2021/10/01,18:00,0.553,0.812,0.531,0.991,0.691,0.347,0.594,0.564,�k�k��,12.1,�L
2021/10/01,18:10,0.552,0.812,0.533,0.994,0.690,0.346,0.597,0.563,�k�k��,10.4,�L
2021/10/01,18:20,0.554,0.812,0.532,0.992,0.689,0.346,0.595,0.563,�k�k��,12.4,�L
2021/10/01,18:30,0.555,0.814,0.532,0.992,0.691,0.348,0.594,0.564,�k�k��,11.8,�L
2021/10/01,18:40,0.553,0.811,0.533,0.994,0.691,0.347,0.595,0.562,�k�k��,14.9,�L
2021/10/01,18:50,0.554,0.814,0.532,0.996,0.692,0.347,0.596,0.563,�k�k��,13.3,�L
2021/10/01,19:00,0.554,0.814,0.533,0.995,0.692,0.347,0.598,0.563,�k�k��,13.8,�L
2021/10/01,19:10,0.550,0.807,0.528,0.991,0.686,0.345,0.594,0.564,�k�k��,13.3,�L
2021/10/01,19:20,0.548,0.805,0.528,0.984,0.682,0.346,0.593,0.562,�k�k��,13.5,�L
2021/10/01,19:30,0.548,0.804,0.527,0.982,0.679,0.346,0.592,0.562,�k�k��,15.2,�L
2021/10/01,19:40,0.550,0.808,0.529,0.985,0.682,0.347,0.594,0.563,�k�k��,13.8,�L
2021/10/01,19:50,0.552,0.808,0.529,0.986,0.681,0.347,0.595,0.561,�k�k��,15.7,�L
2021/10/01,20:00,0.554,0.810,0.530,0.988,0.682,0.348,0.596,0.563,�k�k��,13.8,�L
2021/10/01,20:10,0.557,0.817,0.531,0.997,0.686,0.348,0.595,0.564,�k�k��,13.8,�L
2021/10/01,20:20,0.554,0.816,0.533,0.998,0.683,0.350,0.596,0.565,�k�k��,12.7,�L
2021/10/01,20:30,0.554,0.814,0.531,0.997,0.683,0.348,0.597,0.564,�k�k��,12.5,�L
2021/10/01,20:40,0.551,0.813,0.530,0.994,0.683,0.348,0.597,0.565,�k�k��,14.1,�L
2021/10/01,20:50,0.553,0.814,0.530,0.997,0.684,0.348,0.596,0.562,�k�k��,12.7,�L
2021/10/01,21:00,0.557,0.817,0.532,1.000,0.684,0.347,0.596,0.566,�k�k��,14.1,�L
2021/10/01,21:10,0.558,0.820,0.533,1.001,0.687,0.348,0.598,0.565,�k�k��,13.6,�L
2021/10/01,21:20,0.560,0.822,0.533,1.006,0.687,0.349,0.598,0.567,�k�k��,13.1,�L
2021/10/01,21:30,0.561,0.826,0.535,1.010,0.689,0.351,0.599,0.569,�k�k��,14.4,�L
2021/10/01,21:40,0.561,0.826,0.537,1.013,0.692,0.351,0.598,0.568,�k�k��,14.4,�L
2021/10/01,21:50,0.563,0.828,0.535,1.016,0.695,0.351,0.600,0.567,�k�k��,14.6,�L
2021/10/01,22:00,0.564,0.830,0.535,1.015,0.696,0.352,0.601,0.567,�k�k��,13.0,�L
2021/10/01,22:10,0.563,0.830,0.538,1.018,0.696,0.350,0.601,0.569,�k�k��,12.1,�L
2021/10/01,22:20,0.565,0.831,0.539,1.019,0.698,0.352,0.603,0.570,�k�k��,15.2,�L
2021/10/01,22:30,0.565,0.833,0.539,1.021,0.697,0.351,0.602,0.570,�k�k��,13.8,�L
2021/10/01,22:40,0.566,0.835,0.539,1.024,0.699,0.353,0.603,0.571,�k�k��,15.5,�L
2021/10/01,22:50,0.567,0.836,0.541,1.023,0.698,0.353,0.602,0.571,�k�k��,14.4,�L
2021/10/01,23:00,0.567,0.837,0.540,1.024,0.701,0.353,0.604,0.571,�k�k��,13.1,�L
2021/10/01,23:10,0.567,0.834,0.539,1.026,0.701,0.354,0.605,0.569,�k�k��,12.7,�L
2021/10/01,23:20,0.568,0.836,0.539,1.028,0.702,0.353,0.606,0.570,�k�k��,13.0,�L
2021/10/01,23:30,0.569,0.836,0.541,1.026,0.700,0.352,0.604,0.570,�k�k��,14.2,�L
2021/10/01,23:40,0.567,0.837,0.540,1.030,0.703,0.353,0.604,0.571,�k�k��,13.0,�L
2021/10/01,23:50,0.569,0.836,0.541,1.031,0.703,0.352,0.604,0.571,�k�k��,14.6,��
